This is the latest recevied weather packets stored in our database for station/object N1KM-15. If no packets are shown the sender has not sent any weather packets the latest 10 day(s).
| Time | Temp. | Humidity | Pressure | Rain* | Wind** | Luminosity | Snow |
|---|---|---|---|---|---|---|---|
| 1788154200 | 68° F | 95% | 761.3 mmHg | 0.07 in | - | - | - |
| 1788153300 | 68° F | 95% | 761.2 mmHg | 0.08 in | - | - | - |
| 1788152400 | 68° F | 95% | 761.2 mmHg | 0.07 in | - | - | - |
| 1788151500 | 69° F | 95% | 761.2 mmHg | 0.07 in | - | - | - |
| 1788150600 | 69° F | 95% | 761.2 mmHg | 0.07 in | - | - | - |
| 1788149700 | 69° F | 95% | 761.2 mmHg | 0.05 in | - | - | - |
| 1788148800 | 69° F | 94% | 761.2 mmHg | 0.57 in | - | - | - |
| 1788147900 | 69° F | 94% | 761.2 mmHg | 0.54 in | - | - | - |
| 1788147000 | 69° F | 94% | 761.3 mmHg | 0.45 in | - | - | - |
| 1788146100 | 70° F | 93% | 761.5 mmHg | 0.19 in | - | - | - |
| 1788145200 | 70° F | 93% | 761.3 mmHg | 0.12 in | - | - | - |
| 1788144300 | 70° F | 92% | 761.4 mmHg | 0.07 in | - | - | - |
| 1788143400 | 70° F | 92% | 761.5 mmHg | 0.02 in | - | - | - |
| 1788142500 | 70° F | 91% | 761.3 mmHg | 0.01 in | - | - | - |
| 1788141600 | 70° F | 90% | 761.5 mmHg | 0 in | - | - | - |
| 1788140700 | 71° F | 89% | 761.5 mmHg | 0 in | - | - | - |
| 1788139800 | 71° F | 88% | 761.5 mmHg | 0 in | - | - | - |
| 1788138900 | 71° F | 86% | 761.5 mmHg | 0 in | - | - | - |
| 1788138000 | 71° F | 86% | 761.4 mmHg | 0 in | - | - | - |
| 1788137100 | 71° F | 86% | 761.3 mmHg | 0 in | - | - | - |
| 1788136200 | 71° F | 85% | 761.2 mmHg | 0 in | - | - | - |
| 1788135300 | 72° F | 85% | 761.2 mmHg | 0 in | - | - | - |
| 1788134400 | 72° F | 85% | 761.2 mmHg | 0 in | - | - | - |
| 1788133500 | 72° F | 84% | 761.1 mmHg | 0 in | - | - | - |
| 1788132600 | 72° F | 84% | 761 mmHg | 0 in | - | - | - |
* Rain since midnight (hover to see other rain measurements)
** Current wind speed in m/s (hover to see current wind gust speed)